This demonstration page uses our WeatherBlox Daily Observations layout. Learn more.

Left ArrowRight Arrow

Hourly Observations for July 16, 2022

Temp ( °F °C ) Dew Point ( °F °C ) Humidity (%) Winds ( mph kmh ) Pressure ( in mb ) Visibility ( mi km ) Precip ( " mm )
12:53 am 00:53 Clear 86 30 69 20.6 57 57 SSE 8 13 29.97 1015 10 16 0.00 0.00
1:53 am 01:53 Clear 84 28.9 70 21.1 63 63 SSE 9 15 29.97 1015 10 16 0.00 0.00
2:53 am 02:53 Clear 82 27.8 71 21.7 69 69 SSE 8 13 29.97 1015 10 16 0.00 0.00
3:53 am 03:53 Clear 81 27.2 71 21.7 72 72 SSE 6 9 29.97 1015 10 16 0.00 0.00
4:53 am 04:53 Clear 80 26.7 71 21.7 74 74 SSE 12 19 29.98 1015 10 16 0.00 0.00
5:53 am 05:53 Clear 79 26.1 71 21.7 77 77 SSE 6 9 29.99 1016 10 16 0.00 0.00
6:53 am 06:53 Mostly Sunny 78 25.6 71 21.7 79 79 SSE 7 11 30.00 1016 10 16 0.00 0.00
7:53 am 07:53 Mostly Sunny 80 26.7 71 21.7 74 74 S 7 11 30.01 1016 10 16 0.00 0.00
8:53 am 08:53 Mostly Sunny 83 28.3 71 21.7 67 67 VRB 6 9 30.01 1016 10 16 0.00 0.00
9:53 am 09:53 Mostly Sunny 85 29.4 72 22.2 65 65 S 8 13 30.01 1016 10 16 0.00 0.00
10:53 am 10:53 Mostly Sunny 88 31.1 71 21.7 57 57 S 8 13 30.00 1016 10 16 0.00 0.00
11:53 am 11:53 Mostly Sunny 91 32.8 70 21.1 50 50 S 6 9 29.99 1016 10 16 0.00 0.00
12:53 pm 12:53 Mostly Sunny 94 34.4 69 20.6 44 44 S 6 9 29.97 1015 10 16 0.00 0.00
1:53 pm 13:53 Mostly Sunny 96 35.6 68 20 40 40 S 10 17 29.95 1014 10 16 0.00 0.00
2:01 pm 14:01 Mostly Sunny 94 34.4 68 20 43 43 Calm 29.93 1014 10 16 0.00 0.00
3:53 pm 15:53 Partly Cloudy 98 36.7 67 19.4 36 36 SE 12 19 29.91 1013 10 16 0.00 0.00
4:53 pm 16:53 Partly Cloudy 99 37.2 67 19.4 35 35 ESE 9 15 29.89 1012 10 16 0.00 0.00
5:53 pm 17:53 Partly Cloudy 99 37.2 66 18.9 34 34 SE 12 19 29.86 1011 10 16 0.00 0.00
6:53 pm 18:53 Partly Cloudy 97 36.1 66 18.9 36 36 S 8 13 29.85 1011 10 16 0.00 0.00
7:53 pm 19:53 Mostly Cloudy 96 35.6 66 18.9 37 37 S 7 11 29.85 1011 10 16 0.00 0.00
8:53 pm 20:53 Mostly Cloudy 95 35 66 18.9 39 39 SE 8 13 29.86 1011 10 16 0.00 0.00
9:53 pm 21:53 Mostly Cloudy 94 34.4 67 19.4 41 41 SSE 9 15 29.87 1012 10 16 0.00 0.00
10:53 pm 22:53 Mostly Cloudy 92 33.3 67 19.4 44 44 SSE 8 13 29.89 1012 10 16 0.00 0.00
11:53 pm 23:53 Partly Cloudy 91 32.8 66 18.9 44 44 S 8 13 29.89 1012 10 16 0.00 0.00

Powered by AerisWeather